[[{"header":{"parameterUnit":"m.s-1","parameterCategory":1,"la1":30.2991,"la2":30.254,"lo1":-89.0895,"lo2":-89.0444,"dy":0.0017,"dx":0.0017,"nx":28,"ny":28,"refTime":"2023-11-17T09:00:00:Z","depth":0,"parameterNumber":2,"parameterNumberName":"U-component_of_WINDS"},"data":[0,0,0,0,0,0,0,0,0,0,0,0,0,0,0,0,0,0,0,0,0,0,0,0,0,0,0,0,0,0,0,0,0,0,0,0,0,0,0,0,0,0,0,0,0,0,0,0,0,0,0,0,0,0,0,0,0,0,-1.7928,-1.7929,0,-1.8058,-1.8059,-1.806,-1.8032,-1.803,-1.8027,-1.8025,-1.8163,-1.8169,-1.8174,0,0,0,0,0,0,0,0,0,0,0,0,0,-1.766,-1.7665,-1.7928,-1.7929,-1.7931,-1.8057,-1.8059,-1.8061,-1.8033,-1.803,-1.8027,-1.8024,-1.8161,-1.8168,-1.8175,0,0,0,0,0,0,0,0,0,0,0,0,0,-1.7782,-1.7667,-1.7927,-1.7932,-1.7934,-1.8057,-1.8059,-1.8061,-1.8033,-1.803,-1.8026,-1.8023,-1.8159,-1.8167,-1.8176,-1.8304,0,0,-1.8203,-1.8207,0,0,0,0,0,0,0,0,-1.7775,-1.7792,-1.793,-1.7932,-1.7934,-1.8025,-1.8015,-1.8143,-1.8034,-1.7996,-1.8025,-1.8021,-1.812,-1.8132,-1.8165,-1.8311,-1.8317,-1.8204,-1.8209,-1.8213,-1.8216,0,0,0,0,0,0,0,-1.7767,-1.7786,-1.7979,-1.7932,-1.7934,-1.7929,-1.7942,-1.8039,-1.8077,-1.7999,-1.7997,-1.8013,-1.8121,-1.8156,-1.8168,-1.8319,-1.8204,-1.8212,-1.8217,-1.8221,-1.8578,-1.8582,0,0,0,0,0,0,-1.7756,-1.7779,-1.7975,-1.7983,-1.7844,-1.7937,-1.7952,-1.7999,-1.8076,-1.8084,-1.8015,-1.8011,-1.8143,-1.8157,-1.8172,-1.8329,-1.8213,-1.8222,-1.8227,-1.8574,-1.8579,-1.8584,0,0,0,0,0,0,-1.775,-1.7773,-1.797,-1.7881,-1.7905,-1.7945,-1.7999,-1.8004,-1.8039,-1.8088,-1.8095,-1.8044,-1.814,-1.816,-1.8272,-1.8333,-1.8226,-1.8234,-1.8569,-1.8576,-1.8581,-1.8643,0,0,0,0,0,0,-1.7742,-1.7771,-1.7819,-1.7882,-1.791,-1.8066,-1.8003,-1.8009,-1.8054,-1.8049,-1.8117,-1.8125,-1.8139,-1.8259,-1.8281,-1.8344,-1.8241,-1.8564,-1.8572,-1.858,-1.8635,-1.865,-1.8663,0,0,0,0,0,-1.7733,-1.7832,-1.7822,-1.7846,-1.7971,-1.8069,-1.8086,-1.8098,-1.8059,-1.8109,-1.814,-1.8123,-1.8323,-1.827,-1.8295,-1.8362,-1.856,-1.857,-1.8579,-1.8629,-1.8647,-1.8663,0,0,0,0,0,0,-1.7777,-1.784,-1.783,-1.7952,-1.8005,-1.8064,-1.8127,-1.8116,-1.8183,-1.8176,-1.819,-1.8206,-1.832,-1.8352,-1.8292,-1.8491,-1.8436,-1.8451,-1.8466,-1.8484,-1.8497,-1.8488,-1.8248,0,0,0,0,0,-1.7801,-1.7874,-1.7926,-1.8029,-1.8056,-1.8087,-1.813,-1.8135,-1.8192,-1.8215,-1.8254,-1.8311,-1.8387,-1.8437,-1.8509,-1.8639,-1.8655,-1.8697,-1.8711,-1.8722,-1.8735,-1.8809,-1.8829,-1.8614,-1.8614,-1.8614,0,0,-1.7852,-1.7895,-1.7941,-1.8039,-1.8081,-1.8158,-1.8106,-1.819,-1.8248,-1.8228,-1.8336,-1.8367,-1.8432,-1.8554,-1.861,-1.8584,-1.8798,-1.8734,-1.8742,-1.875,-1.882,-1.8841,-1.8859,-1.8621,-1.862,-1.8619,0,0,-1.7983,-1.8022,-1.8113,-1.8156,-1.822,-1.824,-1.8262,-1.8322,-1.8342,-1.845,-1.8437,-1.8507,-1.8636,-1.8684,-1.8724,-1.8874,-1.8862,-1.8897,-1.897,-1.9042,-1.9059,-1.9074,-1.913,-1.9149,-1.891,-1.891,-1.891,0,-1.8039,-1.8153,-1.8162,-1.8247,-1.8292,-1.8275,-1.8368,-1.841,-1.8495,-1.8527,-1.8496,-1.8658,-1.8701,-1.8834,-1.8871,-1.8904,-1.8931,-1.8891,-1.9055,-1.907,-1.9085,-1.9138,-1.9159,-1.8914,-1.8914,-1.8913,-1.8913,0,-1.8219,-1.8299,-1.8365,-1.8446,-1.8497,-1.8586,-1.861,-1.8662,-1.8662,-1.8686,-1.8797,-1.8847,-1.893,-1.8961,-1.8963,-1.9096,-1.9078,-1.9051,-1.8997,-1.9109,-1.916,-1.918,-1.892,-1.8919,-1.8917,-1.8916,0,0,-1.8384,-1.8468,-1.8493,-1.853,-1.8599,-1.8662,-1.875,-1.883,-1.8875,-1.8934,-1.901,-1.912,-1.9095,-1.9142,-1.9148,-1.921,-1.9329,-1.9176,-1.9178,-1.9205,-1.9482,-1.9503,-1.9527,-1.932,-1.9324,-1.9327,-1.9477,0,-1.8524,-1.8679,-1.8689,-1.8831,-1.8906,-1.8891,-1.8969,-1.902,-1.9045,-1.9113,-1.9141,-1.9219,-1.918,-1.9208,-1.9269,-1.9301,-1.9385,-1.929,-1.9394,-1.9397,-1.938,-1.9553,-1.9576,-1.9715,-1.9496,-1.95,-1.9502,0,-1.8708,-1.8772,-1.892,-1.8979,-1.9011,-1.9081,-1.9155,-1.922,-1.9279,-1.9293,-1.9344,-1.9342,-1.9436,-1.9376,-1.9506,-1.9442,-1.9484,-1.9507,-1.9512,-1.9525,-1.9458,-1.9572,-1.976,-1.9782,-1.9533,-1.953,-1.9528,0,-1.8816,-1.8939,-1.9044,-1.9076,-1.9147,-1.9197,-1.9229,-1.9284,-1.9332,-1.9397,-1.9428,-1.9504,-1.9546,-1.9606,-1.9625,-1.9579,-1.9755,-1.9697,-1.9771,-1.9771,-1.9811,-1.9809,-2.0011,-1.9834,-1.9834,-1.9833,-1.9833,0,-1.8973,-1.9065,-1.9094,-1.9159,-1.9262,-1.9273,-1.9376,-1.9405,-1.9455,-1.9526,-1.9518,-1.9586,-1.9605,-1.9678,-1.9693,-1.98,-1.9818,-1.9834,-1.9837,-1.9836,-1.9834,-1.9866,-1.9858,-1.9839,-1.9838,-1.9837,-1.9836,0,-1.9112,-1.9135,-1.9249,-1.9307,-1.9323,-1.9397,-1.9448,-1.9511,-1.9534,-1.9625,-1.9647,-1.9684,-1.9768,-1.9792,-1.9894,-1.9904,-2.003,-2.0023,-2.001,-2.0011,-2.0085,-2.0079,-2.0316,-2.0349,-2.0149,-2.0151,-2.0152,0,-1.9212,-1.9282,-1.9347,-1.9394,-1.9428,-1.9504,-1.9552,-1.9566,-1.9617,-1.969,-1.9745,-1.9828,-1.9895,-2.0031,-2.0068,-2.0146,-2.0143,-2.0221,-2.0155,-2.0152,-2.0147,-2.0144,-2.0152,-2.0234,-2.0236,-2.0238,-2.0239,0,-1.9387,-1.9395,-1.9464,-1.9537,-1.9595,-1.9654,-1.971,-1.975,-1.9772,-1.983,-1.9916,-1.9968,-2.0071,-2.0155,-2.0234,-2.0269,-2.026,-2.0259,-2.0281,-2.0282,-2.0272,-2.0281,-2.0047,-2.0255,-2.0253,-2.0252,-2.0251,-2.0251,-1.9511,-1.9574,-1.963,-1.9707,-1.9751,-1.9804,-1.9867,-1.9897,-1.9968,-2.0053,-2.0057,-2.0151,-2.0209,-2.0314,-2.0353,-2.0428,-2.0405,-2.0436,-2.0445,-2.0453,-2.046,-2.0258,-2.0442,-2.0442,-2.0441,-2.0441,-2.0441,0,-1.9688,-1.9723,-1.9794,-1.9873,-1.9935,-1.9918,-1.998,-2.0034,-2.0115,-2.017,-2.0236,-2.0335,-2.0416,-2.0459,-2.054,-2.0591,-2.0589,-2.0613,-2.061,-2.0619,-2.0475,-2.0449,-2.0613,-2.0613,-2.0613,-2.0613,-2.0613,-2.0613,-1.9787,-1.9893,-1.9907,-2.0035,-2.007,-2.016,-2.0197,-2.0247,-2.0291,-2.0402,-2.0469,-2.0495,-2.0546,-2.063,-2.0705,-2.0715,-2.0747,-2.0773,-2.0782,-2.0646,-2.0629,-2.0612,-2.0588,-2.0779,-2.0779,-2.092,-2.0921,-2.0922]},{"header":{"parameterUnit":"m.s-1","parameterCategory":1,"la1":30.2991,"la2":30.254,"lo1":-89.0895,"lo2":-89.0444,"dy":0.0017,"dx":0.0017,"nx":28,"ny":28,"refTime":"2023-11-17T09:00:00:Z","depth":0,"parameterNumber":3,"parameterNumberName":"V-component_of_WINDS"},"data":[0,0,0,0,0,0,0,0,0,0,0,0,0,0,0,0,0,0,0,0,0,0,0,0,0,0,0,0,0,0,0,0,0,0,0,0,0,0,0,0,0,0,0,0,0,0,0,0,0,0,0,0,0,0,0,0,0,0,-1.899,-1.899,0,-1.9018,-1.9018,-1.9018,-1.9,-1.8999,-1.8998,-1.8997,-1.9023,-1.9024,-1.9026,0,0,0,0,0,0,0,0,0,0,0,0,0,-1.8919,-1.892,-1.899,-1.899,-1.8991,-1.9018,-1.9018,-1.9018,-1.9,-1.8999,-1.8998,-1.8997,-1.9022,-1.9024,-1.9026,0,0,0,0,0,0,0,0,0,0,0,0,0,-1.8948,-1.8921,-1.899,-1.8985,-1.8985,-1.9018,-1.9018,-1.9018,-1.9,-1.8999,-1.8998,-1.8997,-1.9022,-1.9024,-1.9026,-1.9064,0,0,-1.9033,-1.9034,0,0,0,0,0,0,0,0,-1.8947,-1.8951,-1.8985,-1.8985,-1.8985,-1.9004,-1.9002,-1.9034,-1.9,-1.8994,-1.8997,-1.8996,-1.9017,-1.902,-1.9028,-1.9066,-1.9067,-1.9033,-1.9034,-1.9035,-1.9036,0,0,0,0,0,0,0,-1.8945,-1.895,-1.9001,-1.8986,-1.8986,-1.898,-1.8983,-1.9008,-1.9012,-1.8995,-1.8993,-1.8997,-1.9017,-1.9026,-1.9028,-1.9067,-1.9033,-1.9035,-1.9036,-1.9037,-1.9138,-1.914,0,0,0,0,0,0,-1.8944,-1.8948,-1.9,-1.9002,-1.8963,-1.8983,-1.8986,-1.8999,-1.9012,-1.9013,-1.8998,-1.8996,-1.9022,-1.9026,-1.9029,-1.9075,-1.9035,-1.9037,-1.9038,-1.9137,-1.9139,-1.914,0,0,0,0,0,0,-1.8942,-1.8948,-1.8999,-1.8975,-1.8981,-1.8985,-1.9,-1.9,-1.9009,-1.9015,-1.9015,-1.9006,-1.9022,-1.9026,-1.9056,-1.9076,-1.9038,-1.904,-1.9135,-1.9137,-1.9139,-1.9168,0,0,0,0,0,0,-1.894,-1.8948,-1.8963,-1.8975,-1.8982,-1.9026,-1.9002,-1.9002,-1.9013,-1.9011,-1.9022,-1.9023,-1.9021,-1.9053,-1.9058,-1.9078,-1.9042,-1.9133,-1.9136,-1.9139,-1.9165,-1.917,-1.9175,0,0,0,0,0,-1.8938,-1.8969,-1.8964,-1.897,-1.9001,-1.9028,-1.9031,-1.9029,-1.9015,-1.903,-1.9034,-1.9023,-1.9073,-1.9056,-1.9062,-1.9083,-1.9132,-1.9135,-1.9138,-1.9163,-1.9169,-1.9175,0,0,0,0,0,0,-1.8958,-1.8971,-1.8965,-1.9002,-1.9014,-1.9024,-1.9043,-1.9036,-1.9052,-1.9049,-1.9044,-1.9047,-1.9079,-1.9084,-1.9065,-1.9121,-1.91,-1.9104,-1.9116,-1.9123,-1.9128,-1.9126,-1.9044,0,0,0,0,0,-1.8967,-1.8989,-1.8998,-1.9029,-1.9036,-1.9039,-1.905,-1.9047,-1.9059,-1.9064,-1.907,-1.9081,-1.9099,-1.9111,-1.9128,-1.9166,-1.9168,-1.9183,-1.9188,-1.9192,-1.9196,-1.9216,-1.9223,-1.915,-1.915,-1.915,0,0,-1.8986,-1.8995,-1.9009,-1.9034,-1.9043,-1.9064,-1.9043,-1.9066,-1.9082,-1.9067,-1.9096,-1.9101,-1.9113,-1.9147,-1.9162,-1.9152,-1.9216,-1.9196,-1.9199,-1.9201,-1.922,-1.9227,-1.9233,-1.9152,-1.9152,-1.9152,0,0,-1.903,-1.904,-1.9067,-1.9077,-1.9092,-1.9093,-1.91,-1.9112,-1.9115,-1.9144,-1.9134,-1.9152,-1.9183,-1.9193,-1.9201,-1.925,-1.9241,-1.9256,-1.9282,-1.9302,-1.9308,-1.9313,-1.933,-1.9336,-1.926,-1.926,-1.926,0,-1.9051,-1.9084,-1.9082,-1.9107,-1.9118,-1.9107,-1.9134,-1.9143,-1.9162,-1.917,-1.9158,-1.9198,-1.9205,-1.9241,-1.9254,-1.9261,-1.9268,-1.9254,-1.9307,-1.9312,-1.9317,-1.9333,-1.934,-1.9261,-1.9261,-1.9261,-1.9261,0,-1.9109,-1.9132,-1.9152,-1.9172,-1.9185,-1.9211,-1.9212,-1.9226,-1.9222,-1.9225,-1.9255,-1.9264,-1.9282,-1.9291,-1.9287,-1.9326,-1.932,-1.9308,-1.9287,-1.9326,-1.9341,-1.9347,-1.9264,-1.9263,-1.9263,-1.9262,0,0,-1.9167,-1.9186,-1.9194,-1.9203,-1.9218,-1.9235,-1.926,-1.928,-1.9292,-1.9305,-1.9326,-1.9353,-1.9342,-1.9352,-1.9349,-1.9367,-1.9405,-1.9352,-1.9353,-1.9362,-1.9449,-1.9458,-1.9466,-1.9399,-1.94,-1.9401,-1.9448,0,-1.9212,-1.9258,-1.9257,-1.9298,-1.9319,-1.9309,-1.9331,-1.9342,-1.9346,-1.9363,-1.9366,-1.9386,-1.937,-1.9376,-1.9393,-1.9397,-1.9422,-1.9393,-1.9417,-1.9418,-1.9415,-1.9474,-1.9483,-1.9527,-1.9454,-1.9455,-1.9456,0,-1.9272,-1.9288,-1.9332,-1.9345,-1.9354,-1.9374,-1.9392,-1.9409,-1.9421,-1.9422,-1.9434,-1.9429,-1.9453,-1.9432,-1.9466,-1.9446,-1.9456,-1.946,-1.9461,-1.9463,-1.9439,-1.9477,-1.9541,-1.9548,-1.9465,-1.9465,-1.9464,0,-1.931,-1.9343,-1.9374,-1.9382,-1.9398,-1.9412,-1.9419,-1.943,-1.9442,-1.9458,-1.9465,-1.9483,-1.9492,-1.9506,-1.9505,-1.949,-1.9539,-1.9518,-1.9541,-1.9541,-1.9552,-1.9551,-1.9618,-1.9558,-1.9558,-1.9558,-1.9558,0,-1.9361,-1.9388,-1.9391,-1.941,-1.944,-1.9439,-1.9468,-1.9474,-1.9484,-1.9504,-1.9495,-1.9513,-1.9511,-1.9529,-1.9528,-1.9557,-1.9561,-1.9562,-1.9562,-1.9563,-1.9563,-1.9569,-1.9566,-1.9559,-1.9559,-1.9559,-1.9558,0,-1.9408,-1.9412,-1.9445,-1.9457,-1.9461,-1.9483,-1.9493,-1.9511,-1.9514,-1.9538,-1.9544,-1.9548,-1.9569,-1.9569,-1.9592,-1.9592,-1.9627,-1.9622,-1.9623,-1.9622,-1.9645,-1.9643,-1.9718,-1.9728,-1.9662,-1.9662,-1.9663,0,-1.9441,-1.9462,-1.9477,-1.949,-1.9498,-1.9519,-1.9531,-1.9531,-1.9544,-1.956,-1.9576,-1.9596,-1.9612,-1.9645,-1.965,-1.9668,-1.9664,-1.969,-1.9667,-1.9668,-1.9665,-1.9664,-1.9666,-1.9694,-1.9695,-1.9695,-1.9696,0,-1.9498,-1.9499,-1.9518,-1.9538,-1.9553,-1.9568,-1.9582,-1.9593,-1.9594,-1.9609,-1.9631,-1.9643,-1.9668,-1.9688,-1.9705,-1.9711,-1.9704,-1.9703,-1.9709,-1.9711,-1.971,-1.9711,-1.9635,-1.9701,-1.9701,-1.97,-1.97,-1.97,-1.9539,-1.9557,-1.9571,-1.9593,-1.9603,-1.9617,-1.9634,-1.964,-1.9658,-1.9679,-1.9677,-1.9701,-1.9713,-1.9736,-1.9744,-1.9763,-1.9754,-1.9763,-1.9765,-1.9767,-1.977,-1.9707,-1.9766,-1.9765,-1.9765,-1.9765,-1.9765,0,-1.9596,-1.9605,-1.9624,-1.9645,-1.9662,-1.9654,-1.9669,-1.9684,-1.9706,-1.9718,-1.9734,-1.9759,-1.9779,-1.9785,-1.9804,-1.9818,-1.9815,-1.9823,-1.9822,-1.9823,-1.9777,-1.9769,-1.9825,-1.9825,-1.9825,-1.9825,-1.9825,-1.9825,-1.9628,-1.9659,-1.9661,-1.9697,-1.9705,-1.973,-1.9739,-1.9751,-1.9761,-1.979,-1.9807,-1.9811,-1.9821,-1.9841,-1.9858,-1.986,-1.9867,-1.9876,-1.9876,-1.9833,-1.9826,-1.9821,-1.9814,-1.9878,-1.9878,-1.9922,-1.9922,-1.9922]}]]